Weather History for Malmo Sturup, Sweden

Change the Weather History Date:

Tuesday, February 12, 2013

  Actual Average (EKCH) Record (EKCH)
Temperature  
Mean Temperature 26 °F -  
Max Temperature 30 °F 37 °F 50 °F (1998)
Min Temperature 19 °F 28 °F 15 °F (1999)
Degree Days  
Heating Degree Days 38    
Moisture  
Dew Point 24 °F    
Average Humidity 90    
Maximum Humidity 100    
Minimum Humidity 80    
Precipitation  
Precipitation 0.00 in - - ()
Sea Level Pressure  
Sea Level Pressure 30.04 in    
Wind  
Wind Speed 9 mph ()    
Max Wind Speed 15 mph    
Max Gust Speed -    
Visibility 5.1 miles    
Events Snow    
Averages and records for this station are not official NWS values.
T = Trace of Precipitation, MM = Missing Value Source: Averaged Metar Reports

Daily Weather History Graph

Daily Weather History Graph

Search for Another Location

Airport:

Trip Planner

Search our weather history database for the weather conditions in past years. The results will help you decide how hot, cold, wet, or windy it might be!

Date:

Astronomy

Feb. 12, 2013 Rise Set
Actual Time 7:36 AM CET 5:05 PM CET
Civil Twilight 6:58 AM CET 5:44 PM CET
Nautical Twilight 6:15 AM CET 6:27 PM CET
Astronomical Twilight 5:32 AM CET 7:09 PM CET
Moon 7:51 AM CET (2/12) 8:27 PM CET (2/12)
Length of Visible Light 10h 45m
Length of Day
9h 28m
Waxing Crescent, 6% of the Moon is Illuminated
Feb 12
Waxing Crescent
Feb 17
First Quarter
Feb 25
Full
Mar 4
Last Quarter
Mar 11
New

Hourly Weather History & Observations

Time (CET) Temp. Windchill Dew Point Humidity Pressure Visibility Wind Dir Wind Speed Gust Speed Precip Events Conditions
12:20 AM 26.6 °F 16.8 °F 24.8 °F 93% 30.04 in 6.2 mi NE 10.4 mph - N/A Snow Light Snow
12:50 AM 26.6 °F 16.2 °F 24.8 °F 93% 30.04 in 3.1 mi NE 11.5 mph - N/A Snow Snow Grains
1:20 AM 26.6 °F 14.7 °F 24.8 °F 93% 30.04 in 6.2 mi NE 15.0 mph - N/A Snow Snow Grains
1:50 AM 26.6 °F 14.7 °F 24.8 °F 93% 30.04 in 6.2 mi NE 15.0 mph - N/A   Scattered Clouds
2:20 AM 26.6 °F 15.2 °F 23.0 °F 86% 30.04 in 5.0 mi NE 13.8 mph - N/A Snow Light Snow
2:50 AM 26.6 °F 15.7 °F 23.0 °F 86% 30.04 in 5.6 mi NE 12.7 mph - N/A Snow Light Snow
3:20 AM 26.6 °F 15.2 °F 23.0 °F 86% 30.04 in 5.6 mi NE 13.8 mph - N/A Snow Snow Grains
3:50 AM 26.6 °F 15.2 °F 23.0 °F 86% 30.04 in - NE 13.8 mph - N/A Snow Light Snow
4:20 AM 26.6 °F 15.2 °F 23.0 °F 86% 30.04 in - NE 13.8 mph - N/A Snow Light Snow
4:50 AM 26.6 °F 15.7 °F 23.0 °F 86% 30.04 in - NNE 12.7 mph - N/A Snow Light Snow
5:20 AM 26.6 °F 16.2 °F 23.0 °F 86% 30.04 in 1.9 mi NNE 11.5 mph - N/A Snow Light Snow
5:50 AM 26.6 °F 15.7 °F 24.8 °F 93% 30.04 in - NNE 12.7 mph - N/A Snow Light Snow
6:20 AM 26.6 °F 16.8 °F 23.0 °F 86% 30.01 in - NNE 10.4 mph - N/A Snow Light Snow
6:50 AM 24.8 °F 14.6 °F 23.0 °F 93% 30.01 in - NNE 10.4 mph - N/A Snow Light Snow
7:20 AM 24.8 °F 14.6 °F 23.0 °F 93% 30.01 in 2.8 mi NNE 10.4 mph - N/A Snow Light Snow
7:50 AM 24.8 °F 14.6 °F 23.0 °F 93% 30.01 in 3.7 mi NNE 10.4 mph - N/A Snow Light Snow
8:20 AM 24.8 °F 14.6 °F 23.0 °F 93% 30.01 in 3.7 mi NNE 10.4 mph - N/A Snow Light Snow
8:50 AM 26.6 °F 17.5 °F 23.0 °F 86% 30.04 in 2.5 mi NE 9.2 mph - N/A Snow Light Snow
9:20 AM 26.6 °F 19.1 °F 23.0 °F 86% 30.04 in - NNE 6.9 mph - N/A Snow Light Snow
9:50 AM 26.6 °F 17.5 °F 24.8 °F 93% 30.04 in 2.5 mi NE 9.2 mph - N/A Snow Light Snow
10:20 AM 26.6 °F 17.5 °F 23.0 °F 86% 30.04 in 5.0 mi NNE 9.2 mph - N/A   Scattered Clouds
10:50 AM 26.6 °F 16.8 °F 24.8 °F 93% 30.04 in 5.0 mi NNE 10.4 mph - N/A Snow Light Snow
11:20 AM 28.4 °F 18.5 °F 24.8 °F 86% 30.04 in 5.0 mi NE 11.5 mph - N/A   Scattered Clouds
11:50 AM 28.4 °F 18.5 °F 23.0 °F 80% 30.04 in 5.0 mi NE 11.5 mph - N/A   Scattered Clouds
12:20 PM 28.4 °F 18.0 °F 24.8 °F 86% 30.01 in 5.6 mi NE 12.7 mph - N/A   Scattered Clouds
12:50 PM 28.4 °F 18.5 °F 24.8 °F 86% 30.04 in 5.0 mi NE 11.5 mph - N/A   Scattered Clouds
1:20 PM 28.4 °F 20.4 °F 24.8 °F 86% 30.01 in 6.2 mi NNE 8.1 mph - N/A   Scattered Clouds
1:50 PM 28.4 °F 19.7 °F 24.8 °F 86% 30.01 in 6.2 mi NNE 9.2 mph - N/A   Mostly Cloudy
2:20 PM 30.2 °F 23.4 °F 24.8 °F 80% 30.01 in 6.2 mi North 6.9 mph - N/A   Scattered Clouds
2:50 PM 28.4 °F 19.7 °F 24.8 °F 86% 30.01 in 6.2 mi North 9.2 mph - N/A   Mostly Cloudy
3:20 PM 28.4 °F 20.4 °F 24.8 °F 86% 30.01 in 5.6 mi North 8.1 mph - N/A Snow Light Snow
3:50 PM 28.4 °F 21.2 °F 24.8 °F 86% 30.04 in 6.2 mi North 6.9 mph - N/A Snow Light Snow
4:20 PM 28.4 °F 20.4 °F 24.8 °F 86% 30.04 in 2.5 mi North 8.1 mph - N/A Snow Light Snow
4:50 PM 26.6 °F 18.2 °F 24.8 °F 93% 30.04 in 3.1 mi North 8.1 mph - N/A Snow Light Snow
5:20 PM 26.6 °F 17.5 °F 24.8 °F 93% 30.04 in 3.7 mi North 9.2 mph - N/A Snow Light Snow
5:50 PM 24.8 °F 15.3 °F 23.0 °F 93% 30.04 in 6.2 mi North 9.2 mph - N/A Snow Light Snow
6:20 PM 24.8 °F 17.9 °F 23.0 °F 93% 30.04 in 6.2 mi NNW 5.8 mph - N/A   Overcast
6:50 PM 24.8 °F 17.9 °F 23.0 °F 93% 30.04 in 6.2 mi NNW 5.8 mph - N/A   Overcast
7:20 PM 24.8 °F - 23.0 °F 93% 30.06 in 6.2 mi NNW 2.3 mph - N/A   Overcast
7:50 PM 24.8 °F 19.1 °F 23.0 °F 93% 30.06 in 6.2 mi North 4.6 mph - N/A   Overcast
8:20 PM 24.8 °F 19.1 °F 24.8 °F 100% 30.06 in 6.2 mi North 4.6 mph - N/A   Overcast
8:50 PM 24.8 °F 19.1 °F 23.0 °F 93% 30.06 in 6.2 mi North 4.6 mph - N/A   Overcast
9:20 PM 24.8 °F - 23.0 °F 93% 30.06 in 6.2 mi NNW 2.3 mph - N/A   Overcast
9:50 PM 24.8 °F - 23.0 °F 93% 30.09 in 6.2 mi North 1.2 mph - N/A   Overcast
10:20 PM 24.8 °F 20.5 °F 23.0 °F 93% 30.09 in 6.2 mi North 3.5 mph - N/A   Overcast
10:50 PM 24.8 °F - 23.0 °F 93% 30.09 in 6.2 mi NNW 2.3 mph - N/A   Partly Cloudy
11:20 PM 23.0 °F 17.0 °F 21.2 °F 93% 30.09 in - NNW 4.6 mph - N/A   Clear
11:50 PM 19.4 °F 11.5 °F 17.6 °F 93% 30.09 in 5.6 mi NNW 5.8 mph - N/A   Mist